Temperature
20 20 20 20 18 18 19 20 20 20 20 20 20 19 18 18 18 17 17 17 17 18 18 18 18 18 18 18 18 18 18 18 17 17 17 17 17 17 17 17 17 17 17 17 17 17 17 17 17
20 20 20 19 18 18 19 20 20 20 20 20 20 19 18 17 17 17 17 17 18 18 18 18 18 18 18 18 18 18 17 17 17 17 17 17 17 17 17 17 17 17 17 17 17 17 17 17 17
20 20 20 17 18 19 20 20 20 21 21 20 19 18 18 17 17 17 17 17 18 18 18 18 18 18 18 18 17 18 17 17 17 17 17 17 17 17 17 17 17 17 17 17 17 17 17 17 17
20 20 20 18 19 19 20 20 20 20 20 20 19 18 17 17 18 17 17 18 18 17 17 18 18 18 18 18 17 17 17 17 17 17 17 17 17 17 17 17 17 17 17 17 17 17 17 17 17
20 20 18 18 19 20 20 21 21 20 20 19 19 17 17 17 18 18 18 18 18 18 17 17 18 18 18 17 17 17 17 17 17 17 17 17 17 17 17 17 17 17 17 17 17 17 17 17 17
21 18 18 18 20 20 20 21 20 20 19 19 18 17 17 17 17 17 18 18 18 17 17 17 17 17 17 17 17 17 17 17 17 17 17 17 17 17 17 17 17 17 17 17 17 17 17 17 17
20 17 18 19 19 20 20 21 20 19 19 19 18 17 17 17 18 18 18 18 18 17 17 17 17 17 17 17 17 17 17 17 17 17 17 16 16 16 16 16 16 17 17 17 17 17 17 17 17
21 17 18 18 19 19 21 21 20 20 19 19 19 17 17 17 18 18 18 18 17 17 17 17 17 17 17 17 17 17 17 17 17 16 16 16 16 16 16 16 16 16 16 16 16 16 16 16 16
21 17 18 19 19 19 20 20 20 19 19 19 18 18 18 18 18 18 17 17 17 17 17 17 17 17 17 17 17 17 17 16 16 16 16 16 16 16 16 16 16 16 16 16 16 16 16 16 16
20 17 19 19 19 19 20 20 20 19 18 18 18 18 18 18 18 18 18 17 17 17 17 17 17 17 17 17 17 17 16 16 16 16 16 16 16 16 16 16 16 16 16 16 16 16 16 16 16
20 18 19 20 20 21 20 20 20 19 17 17 17 18 18 18 18 18 18 18 18 18 17 17 17 17 17 17 17 17 17 16 16 16 16 16 16 16 16 16 16 16 16 16 16 16 16 16 16
20 20 20 20 21 21 20 20 19 19 18 19 18 18 18 18 18 18 18 18 18 18 18 17 17 17 17 17 17 17 17 17 16 16 16 16 16 16 16 16 16 16 16 16 16 16 16 16 16
20 20 20 21 20 20 20 19 19 18 19 18 18 18 18 18 18 18 18 18 18 18 17 17 17 17 17 17 17 17 17 17 16 16 16 16 16 16 16 16 16 16 16 16 16 16 16 16 16
20 20 20 20 20 20 19 19 18 18 18 18 18 18 18 18 18 18 18 18 18 18 18 18 17 17 17 17 17 17 17 17 16 16 16 16 16 16 16 16 16 16 16 16 16 16 16 16 16
21 20 20 20 20 20 20 18 18 18 18 18 18 18 18 18 18 18 18 18 18 18 18 18 17 17 17 17 17 17 17 17 16 16 16 16 16 16 16 16 16 16 16 16 16 16 16 16 16
20 19 18 19 20 20 19 17 18 18 18 18 18 18 18 18 18 18 18 18 18 18 18 17 17 17 17 17 17 17 16 16 16 16 16 16 16 16 16 16 16 16 16 16 16 16 16 16 16
19 18 18 19 20 20 18 17 18 18 18 18 18 18 18 18 18 18 18 18 18 18 18 17 17 17 17 17 16 16 16 16 16 16 16 16 16 16 16 16 16 16 16 16 16 16 16 16 15
18 18 19 19 19 19 18 17 17 18 18 18 18 18 18 18 18 18 18 18 18 18 17 17 17 17 16 16 16 16 16 16 16 16 16 16 16 16 16 16 16 16 16 16 15 15 15 15 15
19 19 19 19 20 19 18 18 17 18 18 18 18 18 18 19 19 18 18 18 18 17 17 17 17 17 16 16 16 16 16 16 16 16 16 16 16 16 16 16 16 16 16 16 15 15 15 15 15
20 19 19 19 20 19 18 18 18 18 18 18 18 18 18 18 18 18 18 18 18 18 17 17 17 17 17 16 16 16 16 16 16 15 16 16 16 16 16 15 15 15 15 15 15 15 15 15 15
20 19 19 19 19 19 18 18 17 18 19 19 19 19 19 19 18 18 18 18 18 18 17 17 17 17 16 16 16 16 16 16 15 15 15 15 15 15 15 15 15 15 15 15 15 15 15 15 15
19 20 20 20 18 17 18 16 17 17 17 18 18 18 18 18 19 18 18 18 18 18 17 17 17 17 17 16 16 16 16 16 15 15 15 15 15 15 15 15 15 15 15 15 15 15 15 15 15
20 21 20 20 18 17 17 17 16 17 17 17 18 18 19 19 19 19 18 18 18 18 17 17 17 17 17 16 16 16 16 16 15 15 15 15 15 15 15 15 15 15 15 15 15 15 15 15 15
21 20 19 17 17 17 17 17 17 16 17 18 18 19 19 19 19 19 19 18 18 18 17 17 17 17 17 16 16 16 16 16 15 15 15 15 15 15 15 15 15 15 15 15 15 15 15 15 15
20 17 17 17 16 16 17 18 17 18 18 19 19 19 19 19 19 19 18 18 18 18 17 17 17 17 16 16 16 16 16 16 16 15 15 15 15 15 15 15 15 15 15 15 15 15 15 15 15
19 18 17 17 16 17 18 18 18 19 20 20 20 20 19 19 19 19 19 18 18 18 17 17 17 17 16 16 16 16 16 16 16 16 15 15 15 15 15 15 15 15 15 15 15 14 14 14 14
19 18 17 17 17 17 17 18 19 19 19 19 19 19 19 19 19 19 19 18 18 18 18 17 17 17 16 16 16 16 16 16 16 16 15 15 15 15 15 15 15 15 14 14 14 14 14 14 14
19 18 16 17 17 17 18 18 18 18 19 18 18 19 19 19 19 19 19 18 18 18 18 17 17 17 17 16 16 16 16 16 16 16 15 15 15 15 15 15 15 14 14 14 14 14 14 14 14
19 19 18 16 16 16 17 17 19 19 19 18 18 19 19 19 19 18 19 19 18 18 17 17 17 17 16 16 16 16 16 16 16 15 15 15 15 15 15 14 14 14 14 14 14 14 14 14 14
20 19 17 17 17 16 16 17 20 19 19 19 19 19 19 19 19 19 19 18 18 18 17 17 17 17 17 16 16 16 16 16 16 15 15 15 15 15 14 14 14 14 14 14 14 14 13 13 13
Wind_Speed
3 1 3 3 4 4 2 2 2 3 4 5 10 10 9 7 5 6 2 5 7 5 7 10 12 13 14 14 15 14 14 14 14 13 13 12 12 13 12 12 12 11 11 10 10 9 9 9 9
1 1 3 4 4 3 1 0 4 4 6 6 9 9 8 7 6 6 3 6 7 7 8 11 13 13 13 14 14 14 13 14 13 12 12 12 12 12 12 11 10 10 10 9 9 8 8 8 8
1 0 3 4 3 3 3 2 6 6 6 5 6 6 5 4 4 3 6 8 8 8 9 11 13 13 13 14 14 13 13 12 12 12 11 11 11 11 11 10 9 9 9 8 7 7 7 8 8
2 4 4 4 3 1 4 4 7 8 7 7 7 7 4 3 3 6 9 9 10 8 10 11 13 13 13 13 13 13 12 12 11 10 10 10 10 10 10 9 9 8 8 7 6 6 6 7 7
3 4 5 3 2 1 2 5 6 7 5 7 8 7 4 3 8 10 9 9 10 7 9 11 13 13 13 12 12 11 11 11 10 9 9 9 9 8 8 8 8 8 7 7 6 5 5 6 6
4 4 4 3 3 3 3 5 9 11 10 9 8 6 3 3 7 7 8 8 9 8 8 10 12 12 12 12 11 10 10 9 8 8 7 7 7 6 7 7 7 7 6 6 5 4 4 5 6
4 4 2 3 4 3 3 4 6 8 8 5 6 6 4 3 5 7 8 9 8 8 7 7 9 10 11 10 10 9 8 7 7 6 6 6 6 6 5 5 5 5 5 4 3 3 3 4 5
5 4 3 2 4 3 2 4 5 6 6 5 5 7 6 6 6 7 8 8 7 6 5 6 6 7 7 7 8 7 7 6 6 6 5 5 5 4 4 4 4 4 4 3 3 2 3 4 5
4 5 3 2 4 4 5 6 4 5 7 5 4 5 8 9 8 8 7 6 6 6 4 4 4 5 6 5 6 5 5 5 4 4 3 3 3 2 2 2 3 3 3 3 3 2 3 4 5
5 4 2 2 4 5 6 7 5 6 8 7 7 7 9 9 9 8 8 7 7 7 6 5 4 5 5 4 4 4 3 3 3 3 2 3 2 1 1 1 2 2 3 4 4 4 4 4 4
4 4 3 4 5 6 6 6 4 7 6 6 10 11 9 9 8 8 6 6 6 6 6 6 5 5 4 3 4 3 2 3 3 2 2 2 2 2 2 2 4 4 5 5 6 6 4 4 3
4 3 4 4 4 4 5 5 5 5 5 7 9 10 10 9 8 8 7 5 5 6 5 5 5 4 4 4 4 3 3 2 2 2 3 4 3 2 2 2 3 4 4 4 5 4 5 5 5
5 4 5 7 9 7 9 7 7 4 6 8 9 10 9 8 7 6 6 5 5 5 5 4 5 5 4 4 3 4 3 3 4 4 4 5 4 2 2 2 3 4 4 4 3 4 5 5 6
6 6 6 7 7 6 9 5 5 4 7 8 9 8 8 8 7 7 6 6 6 6 6 6 6 6 6 5 4 4 5 6 6 6 5 6 6 4 3 3 3 4 5 5 5 5 4 4 5
7 7 5 3 4 4 8 5 4 6 8 8 7 7 7 6 7 8 8 7 7 7 6 6 6 6 6 6 5 6 6 8 7 6 8 8 8 7 5 4 4 4 7 7 7 6 6 5 5
4 4 2 1 4 4 6 4 4 7 9 7 6 6 6 6 7 7 7 7 7 7 6 5 6 6 6 5 6 6 7 8 7 8 9 9 9 9 7 4 4 6 7 6 4 4 5 5 4
2 2 3 2 3 4 5 5 5 6 9 8 7 7 7 7 7 7 8 8 8 8 8 6 6 6 5 5 6 7 7 7 8 9 8 9 9 10 8 5 5 7 6 4 4 4 4 4 4
4 4 3 4 3 5 5 5 7 7 9 8 8 7 8 9 9 9 9 9 8 8 8 7 6 6 6 5 5 5 5 5 8 8 8 9 9 9 9 6 6 7 5 4 4 4 4 4 3
5 5 3 4 4 5 6 6 7 8 8 8 8 8 9 9 8 8 9 9 8 8 7 7 7 5 5 4 4 4 3 3 3 5 8 9 9 10 9 6 5 5 5 4 4 4 5 5 3
3 4 2 1 3 4 5 4 6 8 9 11 12 11 11 9 7 7 8 9 9 8 7 7 7 6 5 4 3 3 3 2 2 3 7 8 9 9 7 6 4 4 5 6 5 4 3 3 4
2 5 5 4 2 2 3 2 4 5 5 7 10 11 11 13 12 11 10 9 9 9 9 8 7 6 6 5 4 4 4 4 3 3 3 5 8 8 8 7 6 5 4 4 4 4 5 3 3
2 4 5 5 4 1 3 2 6 5 6 7 9 10 12 12 11 11 11 10 10 9 8 8 8 7 6 6 7 6 4 3 2 1 1 3 7 8 8 8 7 5 4 4 4 4 3 4 2
4 3 3 3 3 0 1 2 6 3 6 9 10 12 13 13 12 12 12 12 10 9 9 8 8 7 6 6 7 7 5 3 2 2 3 3 4 6 7 7 7 5 4 4 4 5 5 3 3
4 4 4 4 4 1 5 4 5 5 10 10 10 12 13 13 12 11 10 10 8 7 8 7 8 6 6 7 7 7 7 6 5 4 3 2 2 3 5 6 6 6 5 4 4 4 5 4 5
5 6 3 3 2 5 3 4 7 9 9 12 12 12 13 13 12 12 11 11 10 9 8 8 8 6 6 7 6 7 8 7 7 5 4 3 2 2 1 4 4 4 5 5 5 5 5 4 5
4 7 5 4 4 4 2 4 6 6 7 9 10 10 12 13 13 14 13 12 11 11 10 9 8 7 6 7 7 6 7 5 4 5 4 4 3 2 2 4 4 5 6 6 6 4 4 4 5
4 4 6 5 2 2 3 3 4 1 3 6 8 10 12 13 14 14 13 12 11 11 10 10 9 7 7 7 7 7 6 6 5 5 4 3 3 3 4 5 4 4 5 5 5 4 4 4 4
6 6 4 3 2 2 3 3 4 5 6 7 9 11 12 12 13 13 12 12 11 10 9 9 9 8 7 7 7 7 6 6 6 5 5 4 4 4 5 4 4 4 5 5 4 4 4 5 4
3 3 4 4 4 4 3 6 5 8 9 10 11 11 12 13 12 12 12 11 10 9 9 8 8 7 7 7 7 7 6 5 5 5 5 5 4 5 5 5 5 4 4 4 4 4 5 5 4
7 6 7 5 3 4 3 6 6 7 8 9 10 9 11 13 12 12 11 11 10 10 9 9 8 8 7 7 7 7 6 5 5 5 5 5 6 5 5 5 5 4 4 4 5 5 4 4 4
Wind_Direction
296 328 100 70 59 55 44 351 103 71 59 59 73 78 78 61 81 114 159 134 121 120 112 110 107 105 102 101 101 99 98 97 95 93 92 89 86 85 83 83 81 80 80 79 75 71 71 68 66
5 58 77 64 83 84 32 322 98 97 128 116 73 71 73 70 77 102 125 130 123 119 114 112 108 106 105 104 102 100 98 98 97 95 93 91 89 87 84 83 82 81 81 81 76 70 69 65 61
320 115 84 73 92 143 150 158 117 106 103 95 79 56 65 79 90 113 144 136 121 113 113 114 112 109 106 105 105 105 103 101 99 95 93 92 90 89 86 82 82 84 85 85 82 72 63 61 57
60 48 57 73 86 150 153 154 126 105 73 65 96 72 62 48 108 133 140 131 119 114 115 117 115 113 110 109 107 107 105 103 100 97 95 94 91 90 89 86 84 87 87 86 81 73 64 58 53
74 75 64 68 83 80 124 135 115 100 84 82 93 94 74 39 110 130 136 129 125 122 122 124 119 118 118 117 113 110 109 107 104 101 98 97 95 95 93 88 87 88 88 88 82 72 61 53 48
59 69 82 98 103 78 64 89 95 94 105 101 97 101 89 111 123 136 132 129 129 131 129 126 124 123 125 123 120 118 115 113 110 109 107 104 103 103 103 95 89 88 85 81 76 68 52 44 41
104 90 106 124 112 95 102 89 93 113 109 102 113 102 116 139 144 138 131 129 128 132 128 126 130 130 130 129 127 125 122 120 116 115 117 117 112 107 108 106 94 90 87 80 74 64 34 26 30
124 97 72 81 114 97 87 81 88 95 100 111 109 124 150 171 145 129 123 120 124 126 131 140 141 138 135 137 136 131 127 123 117 118 119 114 107 105 105 105 98 94 92 79 64 41 12 10 23
88 81 100 146 138 133 113 98 76 70 91 77 75 117 143 144 130 117 113 114 128 143 148 157 160 156 154 157 145 135 128 123 114 110 116 107 101 91 83 86 87 75 61 46 28 5 7 22 35
81 108 157 164 139 138 119 107 106 90 86 86 90 102 124 130 129 126 131 136 141 152 170 178 173 177 171 164 135 131 120 106 91 94 105 114 124 120 95 37 20 18 19 15 16 10 13 28 37
117 138 127 94 113 121 102 84 85 113 108 140 143 144 141 135 135 138 142 141 144 150 153 167 169 171 156 134 127 106 93 81 66 82 128 119 105 84 58 24 15 14 14 13 16 23 29 43 59
108 105 114 115 101 94 98 101 87 103 149 156 151 149 143 144 153 155 151 148 133 126 141 150 149 140 139 126 113 109 99 82 65 82 120 119 96 73 57 39 26 22 22 25 29 40 53 64 72
103 112 104 103 97 94 97 99 108 108 123 126 131 136 145 154 157 155 152 143 122 116 121 131 131 127 122 108 100 97 94 90 85 84 99 115 105 87 69 52 46 35 39 48 56 62 65 67 73
130 117 104 103 102 102 105 101 99 132 129 128 133 145 156 160 155 147 145 136 130 125 120 116 113 112 109 103 96 87 87 84 81 74 77 95 98 91 77 61 51 43 49 65 72 71 71 68 78
113 105 86 105 119 131 107 79 124 151 141 137 146 152 154 159 150 155 156 149 147 138 128 123 119 103 97 96 95 86 79 79 71 62 67 82 86 85 80 66 52 47 57 66 67 60 62 67 69
83 79 98 207 149 158 118 146 195 159 150 151 160 162 161 163 161 161 156 153 149 137 129 124 115 102 96 94 93 85 79 77 72 68 66 75 83 84 78 68 53 53 61 66 69 55 58 56 59
62 132 170 214 175 143 129 171 202 176 160 169 176 175 169 166 164 167 163 158 151 145 137 125 112 107 102 94 87 82 78 72 69 67 66 69 74 80 79 71 59 62 63 57 69 60 69 65 62
186 176 185 196 195 146 150 184 189 190 178 185 186 182 177 176 178 174 166 156 149 147 141 130 115 113 109 92 80 72 65 60 63 65 67 69 70 75 76 70 60 64 64 54 61 66 58 65 65
167 157 172 201 180 150 165 185 198 198 189 194 196 192 188 188 182 167 160 152 145 145 140 135 125 127 119 105 98 90 80 65 58 62 67 69 70 78 79 74 65 64 67 63 65 74 64 47 53
159 153 167 169 161 146 167 207 215 202 203 200 196 194 189 184 173 165 159 154 153 155 149 143 138 139 134 130 126 125 120 91 77 58 57 64 70 75 82 80 75 69 69 59 57 68 72 46 44
201 173 177 170 119 77 117 294 259 244 221 206 197 195 187 183 179 173 166 163 157 160 161 156 150 145 138 129 109 92 72 58 50 48 42 46 69 76 82 83 81 75 77 73 62 70 82 74 37
193 193 165 148 123 221 160 234 263 232 221 206 196 190 188 187 181 174 168 168 168 170 165 157 153 149 143 134 127 126 125 129 154 129 80 48 65 75 83 85 84 78 75 76 66 68 75 90 64
189 182 151 142 133 106 212 180 271 211 212 218 205 193 189 185 181 177 175 172 170 166 164 161 153 151 146 140 141 135 132 141 130 103 85 61 48 63 75 82 82 79 77 76 70 66 69 75 84
132 81 53 58 76 281 225 186 263 217 213 211 206 195 189 184 179 175 172 164 163 160 157 157 154 155 152 147 147 146 144 139 126 117 108 83 53 46 57 77 78 79 82 78 77 76 77 73 73
94 90 48 14 6 257 228 190 244 230 211 200 195 191 185 179 174 169 167 165 166 164 163 161 155 159 159 154 154 154 152 149 151 151 144 133 103 81 63 79 78 79 83 83 81 77 75 73 76
167 138 155 188 221 272 264 226 258 241 206 193 185 178 177 175 176 175 175 173 171 170 169 163 161 164 164 161 161 157 153 152 156 159 152 151 150 155 126 106 92 85 84 83 79 73 74 74 75
153 177 174 152 207 255 274 280 321 2 161 170 170 170 177 178 177 178 177 174 172 171 173 169 166 167 165 164 159 154 157 157 157 155 150 150 148 140 117 108 100 88 83 82 82 77 71 76 71
163 159 112 134 176 252 286 259 232 223 205 187 180 181 184 180 178 177 176 177 176 174 172 169 168 169 167 162 161 159 160 161 154 146 148 150 144 127 121 113 104 91 82 80 80 80 76 81 70
182 166 147 149 165 167 238 267 230 206 200 190 192 187 179 178 180 180 180 178 174 171 169 170 168 162 162 161 155 151 156 150 143 149 157 155 143 137 134 128 116 107 97 89 88 88 85 84 71
181 186 157 162 210 184 193 265 266 195 193 187 187 184 182 179 179 179 177 172 171 172 173 173 169 168 170 164 155 156 152 146 146 152 157 150 146 142 137 131 123 118 110 103 105 103 92 92 86
Height
1517 1517 1517 1518 1521 1528 1530 1525 1520 1520 1520 1522 1520 1521 1525 1529 1533 1541 1539 1537 1538 1539 1539 1539 1539 1539 1539 1539 1539 1540 1540 1541 1541 1541 1541 1541 1542 1542 1542 1542 1542 1542 1542 1542 1542 1542 1542 1542 1542
1517 1517 1518 1518 1526 1537 1533 1524 1521 1520 1521 1522 1523 1525 1527 1532 1534 1536 1537 1538 1539 1540 1540 1540 1541 1541 1541 1541 1541 1541 1541 1541 1542 1542 1542 1542 1543 1543 1543 1543 1543 1543 1543 1543 1543 1543 1543 1543 1543
1517 1517 1519 1520 1527 1533 1531 1523 1520 1521 1521 1521 1525 1528 1531 1534 1536 1537 1538 1539 1540 1541 1541 1542 1542 1542 1542 1542 1542 1542 1543 1543 1543 1543 1543 1543 1544 1544 1544 1544 1544 1543 1543 1544 1544 1544 1544 1544 1544
1517 1518 1519 1524 1528 1525 1523 1521 1520 1521 1523 1524 1526 1531 1534 1537 1537 1538 1539 1541 1541 1542 1543 1543 1543 1543 1543 1543 1544 1544 1544 1544 1544 1545 1544 1545 1545 1545 1544 1544 1544 1544 1544 1545 1545 1545 1545 1545 1545
1517 1518 1523 1529 1527 1523 1521 1520 1519 1520 1524 1527 1527 1534 1537 1539 1538 1539 1541 1542 1543 1544 1544 1545 1545 1545 1545 1545 1545 1545 1545 1546 1546 1546 1546 1546 1546 1546 1546 1546 1545 1545 1545 1546 1546 1546 1546 1546 1546
1517 1519 1531 1534 1528 1524 1522 1521 1521 1523 1527 1529 1531 1535 1539 1540 1540 1541 1543 1544 1545 1545 1546 1546 1547 1547 1547 1547 1547 1547 1547 1547 1547 1547 1547 1547 1547 1547 1547 1547 1547 1547 1547 1547 1547 1547 1547 1547 1547
1519 1523 1530 1530 1530 1527 1524 1523 1523 1525 1527 1530 1532 1535 1539 1541 1542 1543 1544 1545 1546 1547 1547 1548 1548 1548 1549 1549 1549 1549 1549 1549 1549 1549 1549 1549 1549 1549 1549 1548 1548 1548 1548 1548 1548 1548 1548 1548 1548
1517 1523 1529 1531 1530 1529 1525 1525 1526 1527 1529 1532 1533 1535 1539 1542 1543 1545 1546 1547 1548 1549 1549 1550 1550 1550 1551 1551 1551 1551 1551 1550 1550 1550 1550 1550 1550 1550 1550 1550 1550 1550 1550 1550 1549 1549 1549 1549 1549
1518 1527 1533 1530 1529 1528 1525 1526 1528 1529 1530 1532 1533 1535 1538 1542 1544 1546 1547 1548 1549 1550 1551 1551 1552 1552 1552 1553 1553 1552 1552 1552 1552 1552 1552 1552 1552 1552 1552 1551 1551 1551 1551 1551 1551 1550 1550 1550 1550
1518 1529 1528 1524 1524 1525 1526 1526 1529 1532 1533 1535 1536 1538 1540 1543 1545 1546 1548 1549 1550 1551 1552 1552 1553 1554 1554 1554 1555 1554 1554 1554 1554 1554 1553 1553 1553 1553 1553 1553 1553 1553 1552 1552 1552 1552 1551 1551 1551
1519 1525 1523 1524 1524 1525 1526 1528 1530 1532 1536 1536 1537 1539 1541 1544 1546 1547 1549 1550 1551 1552 1552 1553 1554 1555 1555 1556 1556 1556 1556 1556 1555 1555 1555 1555 1555 1555 1555 1555 1554 1554 1554 1553 1553 1553 1552 1552 1552
1520 1522 1523 1524 1525 1526 1527 1529 1532 1533 1535 1537 1538 1539 1542 1544 1546 1548 1549 1551 1552 1552 1554 1554 1555 1556 1557 1557 1557 1557 1557 1557 1557 1556 1556 1556 1556 1556 1556 1556 1556 1555 1555 1555 1554 1554 1553 1553 1553
1521 1523 1524 1525 1526 1528 1529 1531 1533 1535 1536 1538 1540 1541 1543 1545 1547 1548 1550 1552 1553 1554 1555 1556 1556 1557 1558 1558 1558 1558 1558 1558 1558 1558 1558 1557 1557 1557 1557 1557 1557 1556 1556 1556 1555 1555 1555 1554 1554
1522 1524 1525 1527 1528 1530 1531 1534 1535 1537 1538 1539 1541 1542 1544 1545 1547 1549 1551 1552 1553 1554 1555 1556 1557 1558 1559 1559 1559 1559 1559 1559 1559 1559 1559 1559 1559 1558 1558 1558 1558 1557 1557 1557 1557 1556 1556 1556 1556
1523 1526 1528 1529 1529 1532 1532 1537 1537 1538 1539 1540 1541 1543 1544 1546 1547 1549 1551 1552 1554 1555 1556 1557 1558 1559 1559 1560 1560 1560 1560 1560 1560 1560 1560 1560 1560 1560 1559 1559 1559 1558 1558 1558 1557 1557 1557 1557 1557
1525 1530 1536 1531 1530 1532 1536 1544 1538 1538 1539 1541 1542 1543 1545 1546 1548 1549 1551 1553 1554 1556 1557 1558 1559 1559 1560 1560 1561 1561 1561 1562 1562 1562 1561 1561 1561 1561 1560 1560 1560 1560 1559 1559 1558 1558 1558 1558 1558
1532 1539 1538 1534 1529 1530 1535 1541 1537 1538 1539 1540 1542 1543 1544 1546 1548 1549 1551 1553 1554 1555 1557 1558 1559 1560 1560 1561 1562 1562 1562 1562 1562 1563 1562 1562 1562 1562 1561 1561 1560 1560 1560 1560 1559 1559 1559 1559 1560
1537 1537 1536 1536 1530 1531 1535 1537 1536 1537 1538 1539 1540 1542 1544 1545 1547 1549 1551 1552 1554 1556 1557 1558 1559 1560 1561 1562 1562 1563 1563 1563 1563 1563 1563 1563 1563 1562 1562 1562 1561 1561 1561 1560 1560 1560 1560 1560 1561
1527 1531 1535 1533 1528 1531 1535 1537 1535 1535 1536 1538 1539 1540 1542 1544 1546 1548 1550 1552 1554 1556 1557 1558 1559 1560 1561 1562 1562 1563 1563 1564 1564 1564 1564 1564 1564 1563 1563 1562 1562 1562 1561 1561 1561 1561 1561 1561 1562
1526 1532 1534 1531 1527 1531 1536 1536 1533 1533 1534 1534 1536 1538 1540 1542 1545 1547 1549 1551 1553 1555 1556 1558 1559 1560 1561 1562 1563 1563 1564 1564 1565 1565 1565 1565 1564 1564 1564 1564 1563 1563 1562 1562 1562 1562 1562 1562 1563
1526 1530 1531 1532 1530 1531 1536 1540 1536 1532 1532 1533 1534 1535 1538 1540 1542 1545 1548 1550 1552 1554 1556 1557 1559 1560 1561 1562 1563 1564 1564 1565 1565 1566 1565 1565 1565 1565 1565 1564 1564 1564 1564 1563 1563 1563 1563 1563 1563
1529 1523 1524 1528 1536 1543 1539 1553 1538 1532 1531 1531 1531 1533 1535 1538 1540 1543 1545 1548 1550 1553 1555 1557 1558 1560 1561 1562 1563 1564 1564 1565 1565 1566 1566 1566 1566 1566 1566 1565 1565 1565 1565 1564 1564 1565 1564 1564 1564
1522 1519 1522 1527 1535 1542 1540 1548 1542 1532 1532 1529 1528 1530 1532 1535 1538 1540 1543 1546 1549 1551 1554 1556 1558 1559 1561 1562 1563 1564 1564 1565 1566 1566 1566 1567 1567 1567 1566 1566 1566 1566 1566 1566 1566 1566 1566 1565 1565
1517 1522 1526 1532 1540 1550 1541 1546 1543 1533 1526 1523 1524 1526 1529 1532 1535 1538 1541 1544 1547 1550 1553 1555 1557 1558 1560 1561 1562 1563 1564 1565 1565 1566 1566 1567 1567 1567 1567 1567 1567 1567 1567 1567 1567 1567 1567 1566 1566
1520 1535 1549 1552 1557 1552 1536 1539 1535 1518 1515 1516 1518 1522 1525 1529 1533 1536 1539 1542 1545 1548 1551 1553 1555 1557 1559 1560 1562 1563 1564 1565 1565 1566 1566 1567 1567 1567 1568 1568 1568 1568 1568 1568 1568 1568 1568 1568 1567
1522 1531 1550 1557 1557 1549 1535 1537 1524 1510 1510 1511 1515 1518 1522 1526 1530 1533 1536 1540 1543 1546 1549 1551 1554 1555 1557 1559 1561 1562 1563 1564 1565 1566 1566 1567 1567 1567 1568 1568 1568 1569 1569 1569 1569 1569 1568 1568 1568
1523 1529 1529 1541 1543 1548 1540 1529 1518 1510 1510 1512 1514 1517 1520 1524 1527 1531 1534 1537 1540 1544 1547 1549 1552 1554 1556 1558 1559 1561 1562 1563 1564 1565 1566 1566 1567 1568 1568 1568 1569 1569 1569 1569 1570 1569 1569 1569 1569
1515 1521 1532 1540 1549 1552 1541 1533 1528 1517 1513 1512 1513 1515 1518 1522 1525 1528 1532 1535 1538 1541 1545 1548 1550 1552 1554 1556 1558 1560 1561 1563 1564 1565 1565 1566 1567 1568 1568 1568 1569 1569 1569 1569 1570 1570 1570 1570 1570
1517 1520 1526 1535 1539 1549 1550 1538 1511 1510 1508 1509 1511 1513 1515 1519 1522 1526 1530 1533 1536 1540 1542 1545 1548 1550 1553 1555 1557 1558 1560 1562 1563 1564 1565 1565 1566 1567 1568 1568 1569 1569 1569 1569 1570 1570 1570 1570 1570
1509 1514 1522 1535 1537 1538 1543 1534 1503 1503 1504 1506 1508 1510 1513 1516 1519 1523 1527 1531 1534 1537 1540 1543 1546 1548 1551 1553 1555 1557 1559 1560 1562 1563 1564 1565 1566 1567 1567 1568 1568 1569 1569 1569 1570 1570 1570 1570 1570